Location: Luxembourg
(49.6117°N, 6.1300°E)
Time: 10:41:50
(UTC+01:00)

Amateur Radio Satellites - All Passes

Search period start: 19 January 2018 10:11
Search period end: 20 January 2018 10:11
Location: Luxembourg, 49.6117°N, 6.1300°E

Satellite Date Start Highest point End Downlink Frequencies (MHz)
Time Altitude Azimuth
AAUSAT CUBESAT 2 19 Jan 10:11:56 10:13:56 13° 302° (WNW) 10:15:55 437.432
QB50P2 19 Jan 10:15:49 10:18:34 17° 60° (ENE) 10:21:20 145.880/145.840
TIGRISAT 19 Jan 10:17:58 10:21:53 30° 265° (W) 10:25:54 435.000
UNISAT 6 19 Jan 10:33:24 10:36:46 21° 269° (W) 10:40:13 437.425
Max Valier Satellite 19 Jan 10:39:34 10:43:19 86° 284° (WNW) 10:47:01 145.860
EO-79 19 Jan 10:46:27 10:50:05 28° 65° (ENE) 10:53:44 145.935-145.965
YUBILEINY 19 Jan 10:46:41 10:55:30 81° 79° (E) 11:04:12 435.215
DUCHIFAT 1 19 Jan 10:48:21 10:51:41 23° 63° (ENE) 10:55:03 145.980
RS-15 19 Jan 10:48:32 11:00:51 69° 318° (NW) 11:12:53 29.354- 29.394
BEESAT 3 19 Jan 10:51:21 10:55:11 48° 123° (ESE) 10:59:02 437.485
O/OREOS (USA 219) 19 Jan 10:51:42 10:56:12 90° 351° (N) 11:00:42 437.305
LO-87 19 Jan 10:57:29 10:59:35 15° 90° (E) 11:01:40 145.935 - 145.965
EO-88 19 Jan 11:03:39 11:07:16 68° 286° (WNW) 11:10:51 145.990 - 145.960
DELFI C3 19 Jan 11:07:46 11:11:15 31° 292° (WNW) 11:14:44 145.870
AO-7 19 Jan 11:12:04 11:13:19 10° 20° (NNE) 11:14:35 .
POLYITAN 1 19 Jan 11:20:11 11:24:21 58° 71° (ENE) 11:28:34 437.675
PRISM 19 Jan 11:25:09 11:28:15 21° 267° (W) 11:31:21 437.425
AIST 2D 19 Jan 11:26:34 11:29:49 35° 263° (W) 11:33:06 435.315
PCSat 19 Jan 11:33:28 11:38:54 82° 305° (NW) 11:44:22 145.827
BEESAT 2 19 Jan 11:34:08 11:37:53 38° 120° (ESE) 11:41:38 435.950
NANOSAT C BR1 19 Jan 11:37:49 11:42:02 78° 74° (ENE) 11:46:18 145.865
QB50P2 19 Jan 11:49:41 11:53:54 64° 259° (W) 11:58:09 145.880/145.840
SO-50 19 Jan 11:50:02 11:52:36 14° 14° (NNE) 11:55:11 436.795
BUGSAT 1 19 Jan 11:57:50 12:01:21 29° 65° (ENE) 12:04:57 437.445
ESTCUBE 1 19 Jan 11:59:53 12:04:19 54° 100° (E) 12:08:42 437.505/2401.250
Gurwin Techsat 1B 19 Jan 12:06:37 12:10:47 24° 59° (ENE) 12:15:00 435.225
VELOX 1 19 Jan 12:11:09 12:12:15 11° 86° (E) 12:13:20 145.980
EO-79 19 Jan 12:21:52 12:25:44 34° 263° (W) 12:29:39 145.935-145.965
SPROUT 19 Jan 12:22:27 12:26:00 25° 94° (E) 12:29:33 437.525
DUCHIFAT 1 19 Jan 12:23:08 12:27:07 42° 262° (W) 12:31:10 145.980
BEESAT 3 19 Jan 12:29:24 12:32:54 28° 323° (NW) 12:36:23 437.485
LO-87 19 Jan 12:29:43 12:33:15 49° 288° (WNW) 12:36:45 145.935 - 145.965
AO-91 19 Jan 12:30:51 12:33:53 32° 68° (ENE) 12:37:02 145.960
O/OREOS (USA 219) 19 Jan 12:33:15 12:34:53 12° 263° (W) 12:36:30 437.305
Oscar 19 19 Jan 12:36:19 12:41:19 49° 68° (ENE) 12:46:20 437.125/150
YUBILEINY 19 Jan 12:44:33 12:51:19 26° 282° (WNW) 12:58:04 435.215
AO-7 19 Jan 12:56:38 13:03:15 27° 46° (NE) 13:09:53 .
POLYITAN 1 19 Jan 12:57:45 13:00:30 17° 270° (W) 13:03:16 437.675
RS-15 19 Jan 13:04:33 13:15:52 40° 349° (N) 13:26:48 29.354- 29.394
BEESAT 2 19 Jan 13:11:56 13:15:38 34° 320° (NW) 13:19:21 435.950
NANOSAT C BR1 19 Jan 13:16:28 13:18:18 12° 273° (W) 13:20:07 145.865
PCSat 19 Jan 13:18:50 13:23:07 23° 328° (NNW) 13:27:26 145.827
AO-85 19 Jan 13:29:30 13:33:30 75° 128° (SE) 13:37:52 145.980
SO-50 19 Jan 13:30:08 13:34:24 34° 37° (NE) 13:38:43 436.795
BUGSAT 1 19 Jan 13:32:59 13:36:39 32° 264° (W) 13:40:23 437.445
ESTCUBE 1 19 Jan 13:37:23 13:40:46 21° 299° (WNW) 13:44:09 437.505/2401.250
ITAMSAT 1 19 Jan 13:40:47 13:43:37 15° 52° (NE) 13:46:27 435.822/435.867
VELOX 1 19 Jan 13:44:57 13:49:22 87° 104° (ESE) 13:53:46 145.980
Gurwin Techsat 1B 19 Jan 13:45:05 13:50:21 62° 258° (WSW) 13:55:38 435.225
SPROUT 19 Jan 13:58:00 14:02:01 40° 292° (WNW) 14:06:02 437.525
UKube-1 19 Jan 14:00:48 14:03:48 18° 91° (E) 14:06:47 .
DX 1 19 Jan 14:07:41 14:11:36 33° 97° (E) 14:15:31 434.975-435.025
AO-91 19 Jan 14:08:07 14:10:33 18° 268° (W) 14:13:01 145.960
BEESAT 3 19 Jan 14:10:39 14:11:41 11° 346° (NNW) 14:12:42 437.485
Oscar 19 19 Jan 14:16:28 14:20:52 27° 267° (W) 14:25:18 437.125/150
M-CUBED/EXP-1 PRIME 19 Jan 14:18:30 14:19:18 10° 50° (NE) 14:20:07 437.505
AO-7 19 Jan 14:46:38 14:55:00 85° 68° (ENE) 15:03:27 .
50 SAT 19 Jan 14:47:24 14:50:32 88° 104° (ESE) 14:53:39 437.505
BEESAT 2 19 Jan 14:52:52 14:54:30 12° 343° (NNW) 14:56:08 435.950
PCSat 19 Jan 15:06:18 15:08:35 13° 354° (N) 15:10:54 145.827
SO-50 19 Jan 15:10:31 15:15:04 51° 237° (WSW) 15:19:40 436.795
AO-85 19 Jan 15:11:01 15:14:26 24° 330° (NNW) 15:18:04 145.980
BEESAT 19 Jan 15:12:17 15:15:39 19° 90° (E) 15:19:02 436.000
ITAMSAT 1 19 Jan 15:17:07 15:22:17 78° 72° (ENE) 15:27:29 435.822/435.867
MOZHAYETS 4 19 Jan 15:20:17 15:24:35 36° 96° (E) 15:28:50
RS-15 19 Jan 15:20:22 15:31:50 46° 23° (NNE) 15:42:45 29.354- 29.394
CUBESAT XI-V 19 Jan 15:20:44 15:21:37 10° 85° (E) 15:22:30 437.345
VELOX 1 19 Jan 15:22:54 15:25:11 14° 304° (WNW) 15:27:28 145.980
UKube-1 19 Jan 15:35:56 15:40:09 55° 290° (WNW) 15:44:20 .
DX 1 19 Jan 15:43:55 15:47:45 31° 295° (WNW) 15:51:34 434.975-435.025
M-CUBED/EXP-1 PRIME 19 Jan 15:48:44 15:53:02 65° 67° (ENE) 15:57:02 437.505
ITUPSAT 1 19 Jan 16:08:01 16:12:47 56° 101° (E) 16:17:31 437.325
DOVE 4 19 Jan 16:08:51 16:13:03 58° 72° (ENE) 16:17:09 437.250
XW-2B 19 Jan 16:20:44 16:22:26 13° 59° (ENE) 16:24:10 145.730 - 145.750
CUTE-I 19 Jan 16:37:52 16:42:03 24° 59° (ENE) 16:46:15 437.470
AO-7 19 Jan 16:42:08 16:48:45 26° 269° (W) 16:55:26 .
LilacSat-2 19 Jan 16:44:39 16:47:44 23° 65° (ENE) 16:50:50 437.200
HO-68 19 Jan 16:49:05 16:54:45 26° 52° (NE) 17:00:24 435.675
BEESAT 19 Jan 16:49:06 16:53:51 63° 289° (WNW) 16:58:35 436.000
XW-2C 19 Jan 16:49:17 16:52:23 24° 66° (ENE) 16:55:29 145.795 - 145.815
PCSat 19 Jan 16:50:57 16:54:21 16° 21° (NNE) 16:57:44 145.827
AO-85 19 Jan 16:54:33 16:56:28 12° 355° (N) 16:58:27 145.980
CUBESAT XI-V 19 Jan 16:55:07 16:59:47 80° 103° (ESE) 17:04:23 437.345
MOZHAYETS 4 19 Jan 16:57:35 17:01:40 31° 295° (WNW) 17:05:44
ITAMSAT 1 19 Jan 16:59:04 17:02:21 17° 271° (W) 17:05:40 435.822/435.867
KKS-1 19 Jan 17:03:48 17:06:45 17° 90° (E) 17:09:42 437.445
M-CUBED/EXP-1 PRIME 19 Jan 17:25:01 17:27:42 16° 263° (W) 17:30:17 437.505
STARS 19 Jan 17:26:07 17:27:46 12° 87° (E) 17:29:25 437.465
XW-2F 19 Jan 17:26:45 17:30:28 53° 72° (ENE) 17:34:11 145.980 - 146.000
BEESAT 3 19 Jan 17:26:45 17:29:55 22° 33° (NNE) 17:33:03 437.485
KAITUO 1B 19 Jan 17:28:27 17:32:02 43° 71° (ENE) 17:35:37 145.475/437.950
RS-15 19 Jan 17:33:50 17:45:46 88° 232° (SW) 17:57:01 29.354- 29.394
XW-2D 19 Jan 17:34:42 17:38:32 73° 74° (ENE) 17:42:21 145.860 - 145.880
NUDT-PHONESAT 19 Jan 17:42:44 17:46:25 58° 72° (ENE) 17:50:06 437.300
ITUPSAT 1 19 Jan 17:46:30 17:50:16 23° 300° (WNW) 17:54:00 437.325
DOVE 4 19 Jan 17:48:28 17:51:08 16° 270° (W) 17:53:45 437.250
XW-2B 19 Jan 17:52:15 17:56:04 75° 258° (WSW) 17:59:55 145.730 - 145.750
AAUSAT CUBESAT 2 19 Jan 17:56:15 17:57:55 12° 57° (ENE) 17:59:35 437.432
SEEDS 19 Jan 18:06:35 18:10:17 30° 66° (ENE) 18:13:58 437.485
CUBEBUG 2 19 Jan 18:08:27 18:12:26 35° 67° (ENE) 18:16:34 437.445
BEESAT 2 19 Jan 18:10:10 18:13:14 20° 31° (NNE) 18:16:16 435.950
CUTE 1.7 + AOD 2 19 Jan 18:14:57 18:19:08 57° 72° (ENE) 18:23:20 437.475
CUTE-I 19 Jan 18:16:27 18:21:43 62° 258° (WSW) 18:27:00 437.470
UWE-3 19 Jan 18:17:58 18:21:41 27° 64° (ENE) 18:25:31 435.000/436.395/437.385
LilacSat-2 19 Jan 18:18:17 18:21:50 35° 263° (W) 18:25:26 437.200
XW-2C 19 Jan 18:22:54 18:26:25 34° 263° (W) 18:29:56 145.795 - 145.815
BEESAT 19 Jan 18:29:15 18:30:42 11° 309° (NW) 18:32:10 436.000
XW-2A 19 Jan 18:32:33 18:34:58 18° 64° (ENE) 18:37:22 145.665 - 145.685
CUBESAT XI-V 19 Jan 18:33:44 18:36:33 16° 303° (WNW) 18:39:22 437.345
PCSat 19 Jan 18:33:56 18:39:10 44° 45° (NE) 18:44:21 145.827
HO-68 19 Jan 18:34:34 18:41:45 85° 253° (WSW) 18:48:58 435.675
AO-85 19 Jan 18:35:51 18:38:46 16° 20° (NNE) 18:41:48 145.980
KKS-1 19 Jan 18:39:18 18:43:43 62° 289° (WNW) 18:48:06 437.445
ZACube-1 19 Jan 18:45:40 18:49:26 27° 64° (ENE) 18:53:17 437.345
NO-84 19 Jan 18:50:34 18:53:29 52° 146° (SE) 18:56:17 435.350 FM
AO-73 19 Jan 18:53:29 18:57:19 29° 65° (ENE) 19:01:13 145.935
STARS 19 Jan 19:00:17 19:04:44 88° 285° (WNW) 19:09:09 437.465
XW-2F 19 Jan 19:02:38 19:04:52 15° 270° (W) 19:07:08 145.980 - 146.000
KAITUO 1B 19 Jan 19:03:34 19:06:12 18° 268° (W) 19:08:49 145.475/437.950
BEESAT 3 19 Jan 19:03:54 19:07:49 68° 235° (SW) 19:11:40 437.485
STRAND 1 19 Jan 19:09:24 19:13:19 21° 91° (E) 19:17:13 437.568
XW-2D 19 Jan 19:11:57 19:13:10 11° 272° (W) 19:14:23 145.860 - 145.880
NUDT-PHONESAT 19 Jan 19:18:43 19:20:36 13° 271° (W) 19:22:29 437.300
Oscar 11 19 Jan 19:28:30 19:32:33 39° 68° (ENE) 19:36:37 .
AAUSAT CUBESAT 2 19 Jan 19:28:34 19:32:43 90° 49° (NE) 19:36:52 437.432
FO-29 19 Jan 19:33:55 19:36:58 15° 87° (E) 19:39:58 435.910
SEEDS 19 Jan 19:42:09 19:45:55 31° 264° (W) 19:49:41 437.485
CUBEBUG 2 19 Jan 19:45:13 19:49:05 30° 266° (W) 19:53:05 437.445
RS-15 19 Jan 19:47:22 19:56:34 29° 258° (WSW) 20:05:28 29.354- 29.394
BEESAT 2 19 Jan 19:47:25 19:51:28 85° 231° (SW) 19:55:27 435.950
CUTE 1.7 + AOD 2 19 Jan 19:52:30 19:55:19 17° 270° (W) 19:58:09 437.475
UWE-3 19 Jan 19:53:45 19:57:57 41° 263° (W) 20:02:17 435.000/436.395/437.385
XW-2A 19 Jan 20:04:12 20:07:24 36° 262° (W) 20:10:37 145.665 - 145.685
EO-88 19 Jan 20:14:26 20:15:14 11° 58° (ENE) 20:16:03 145.990 - 145.960
AO-85 19 Jan 20:15:45 20:20:20 43° 42° (NE) 20:25:13 145.980
PCSat 19 Jan 20:17:31 20:22:32 39° 246° (WSW) 20:27:31 145.827
ZACube-1 19 Jan 20:21:21 20:25:32 40° 263° (W) 20:29:51 437.345
DELFI C3 19 Jan 20:22:16 20:25:35 27° 66° (ENE) 20:28:55 145.870
HO-68 19 Jan 20:25:44 20:30:32 19° 273° (W) 20:35:21 435.675
NO-84 19 Jan 20:28:02 20:30:43 34° 345° (NNW) 20:33:22 435.350 FM
AO-73 19 Jan 20:29:15 20:33:24 38° 264° (W) 20:37:40 145.935
STARS 19 Jan 20:38:16 20:40:24 13° 304° (NW) 20:42:32 437.465
STRAND 1 19 Jan 20:47:51 20:52:56 61° 289° (WNW) 20:57:59 437.568
Oscar 11 19 Jan 21:05:09 21:08:47 26° 267° (W) 21:12:27 .
AAUSAT CUBESAT 2 19 Jan 21:08:11 21:08:47 10° 274° (W) 21:09:23 437.432
FO-29 19 Jan 21:17:34 21:22:52 79° 287° (WNW) 21:28:04 435.910
Max Valier Satellite 19 Jan 21:21:47 21:25:31 78° 75° (ENE) 21:29:17 145.860
BEESAT 2 19 Jan 21:27:13 21:28:29 11° 250° (WSW) 21:29:45 435.950
ESTCUBE 1 19 Jan 21:29:33 21:31:37 13° 55° (NE) 21:33:40 437.505/2401.250
LO-87 19 Jan 21:38:06 21:39:42 13° 60° (ENE) 21:41:20 145.935 - 145.965
nSIGHT-1 19 Jan 21:40:34 21:43:02 21° 143° (SE) 21:45:32 .
EO-88 19 Jan 21:44:36 21:48:16 86° 257° (WSW) 21:51:57 145.990 - 145.960
ISS 19 Jan 21:47:16 21:49:37 19° 141° (SE) 21:51:58 437.550
AO-85 19 Jan 21:56:13 22:00:48 40° 240° (WSW) 22:05:39 145.980
DELFI C3 19 Jan 21:56:46 22:00:15 30° 264° (W) 22:03:44 145.870
YUBILEINY 19 Jan 21:59:57 22:05:45 20° 74° (ENE) 22:11:30 435.215
TIGRISAT 19 Jan 22:04:05 22:08:35 42° 98° (E) 22:13:03 435.000
NO-84 19 Jan 22:05:52 22:08:22 27° 7° (N) 22:10:52 435.350 FM
UNISAT 6 19 Jan 22:18:50 22:23:32 63° 101° (ESE) 22:28:12 437.425
STRAND 1 19 Jan 22:29:16 22:31:07 12° 310° (NW) 22:32:58 437.568
AIST 2D 19 Jan 22:48:01 22:49:35 12° 89° (E) 22:51:07 435.315
Max Valier Satellite 19 Jan 22:59:27 22:59:50 10° 273° (W) 23:00:14 145.860
PRISM 19 Jan 23:00:37 23:04:25 37° 98° (E) 23:08:12 437.425
ESTCUBE 1 19 Jan 23:03:09 23:07:41 82° 74° (ENE) 23:12:14 437.505/2401.250
FO-29 19 Jan 23:04:25 23:07:07 14° 309° (NW) 23:09:48 435.910
LO-87 19 Jan 23:09:05 23:12:36 65° 258° (WSW) 23:16:11 145.935 - 145.965
VELOX 1 19 Jan 23:11:23 23:14:23 18° 59° (ENE) 23:17:23 145.980
nSIGHT-1 19 Jan 23:15:44 23:18:54 87° 163° (SSE) 23:22:05 .
SPROUT 19 Jan 23:19:30 23:23:17 32° 66° (ENE) 23:27:05 437.525
ISS 19 Jan 23:22:26 23:25:42 78° 161° (SSE) 23:28:59 437.550
QB50P2 19 Jan 23:31:03 23:33:41 16° 89° (E) 23:36:18 145.880/145.840
TIGRISAT 19 Jan 23:41:05 23:45:05 28° 296° (WNW) 23:49:04 435.000
NO-84 19 Jan 23:42:59 23:45:49 74° 27° (NNE) 23:48:43 435.350 FM
YUBILEINY 19 Jan 23:52:18 00:01:07 80° 96° (E) 00:09:56 435.215
UNISAT 6 19 Jan 23:56:23 23:59:48 20° 300° (WNW) 00:03:14 437.425
EO-79 20 Jan 00:01:46 00:05:28 28° 95° (E) 00:09:09 145.935-145.965
DUCHIFAT 1 20 Jan 00:02:45 00:06:06 22° 93° (E) 00:09:27 145.980
AIST 2D 20 Jan 00:19:39 00:23:04 53° 287° (WNW) 00:26:26 435.315
POLYITAN 1 20 Jan 00:36:00 00:40:17 60° 101° (ESE) 00:44:30 437.675
PRISM 20 Jan 00:36:12 00:39:32 25° 296° (WNW) 00:42:51 437.425
ESTCUBE 1 20 Jan 00:42:54 00:45:05 13° 273° (W) 00:47:16 437.505/2401.250
Oscar 19 20 Jan 00:45:31 00:47:22 12° 85° (E) 00:49:11 437.125/150
VELOX 1 20 Jan 00:46:02 00:50:23 63° 258° (WSW) 00:54:46 145.980
nSIGHT-1 20 Jan 00:52:04 00:55:12 57° 1° (N) 00:58:21 .
NANOSAT C BR1 20 Jan 00:53:05 00:57:23 79° 104° (ESE) 01:01:38 145.865
SPROUT 20 Jan 00:55:24 00:59:09 30° 265° (W) 01:02:57 437.525
UKube-1 20 Jan 00:58:56 01:02:33 27° 64° (ENE) 01:06:13 .
ISS 20 Jan 00:59:04 01:02:18 58° 359° (N) 01:05:32 437.550
QB50P2 20 Jan 01:05:37 01:09:53 63° 288° (WNW) 01:14:07 145.880/145.840
DX 1 20 Jan 01:06:57 01:11:06 49° 70° (ENE) 01:15:19 434.975-435.025
O/OREOS (USA 219) 20 Jan 01:08:15 01:12:32 44° 109° (ESE) 01:16:49 437.305
BUGSAT 1 20 Jan 01:09:50 01:13:27 27° 95° (E) 01:17:04 437.445
50 SAT 20 Jan 01:15:33 01:18:32 46° 71° (ENE) 01:21:32 437.505
NO-84 20 Jan 01:20:45 01:22:40 16° 225° (SW) 01:24:38 435.350 FM
EO-79 20 Jan 01:37:22 01:41:17 35° 293° (WNW) 01:45:10 145.935-145.965
DUCHIFAT 1 20 Jan 01:37:53 01:41:57 43° 291° (WNW) 01:45:59 145.980
ITUPSAT 1 20 Jan 01:43:11 01:46:20 18° 57° (ENE) 01:49:28 437.325
AO-91 20 Jan 01:50:29 01:54:39 48° 100° (E) 01:59:14 145.960
YUBILEINY 20 Jan 01:51:33 01:58:58 29° 300° (WNW) 02:06:24 435.215
Gurwin Techsat 1B 20 Jan 01:56:50 02:01:47 37° 97° (E) 02:06:41 435.225
POLYITAN 1 20 Jan 02:12:40 02:15:38 18° 300° (WNW) 02:18:36 437.675
BEESAT 20 Jan 02:22:21 02:26:39 35° 65° (ENE) 02:31:01 436.000
Oscar 19 20 Jan 02:22:21 02:27:34 77° 104° (ESE) 02:32:44 437.125/150
MOZHAYETS 4 20 Jan 02:25:54 02:30:26 57° 71° (ENE) 02:35:01
CUBESAT XI-V 20 Jan 02:26:43 02:30:02 19° 59° (ENE) 02:33:20 437.345
nSIGHT-1 20 Jan 02:28:19 02:31:29 78° 201° (SSW) 02:34:40 .
NANOSAT C BR1 20 Jan 02:30:09 02:32:30 15° 302° (WNW) 02:34:52 145.865
UKube-1 20 Jan 02:34:28 02:38:28 37° 262° (W) 02:42:28 .
ISS 20 Jan 02:35:38 02:38:56 87° 200° (SSW) 02:42:13 437.550
DX 1 20 Jan 02:44:21 02:47:34 20° 268° (W) 02:50:48 434.975-435.025
AO-7 20 Jan 02:44:26 02:50:25 21° 88° (E) 02:56:20 .
BUGSAT 1 20 Jan 02:44:58 02:48:52 36° 293° (WNW) 02:52:45 437.445
O/OREOS (USA 219) 20 Jan 02:48:14 02:52:07 28° 309° (NW) 02:56:00 437.305
50 SAT 20 Jan 02:49:35 02:50:31 11° 270° (W) 02:51:29 437.505
ITUPSAT 1 20 Jan 03:18:48 03:23:35 78° 256° (WSW) 03:28:25 437.325
ITAMSAT 1 20 Jan 03:26:18 03:30:00 19° 90° (E) 03:33:42 435.822/435.867
AO-91 20 Jan 03:27:33 03:30:55 23° 295° (WNW) 03:34:34 145.960
Gurwin Techsat 1B 20 Jan 03:36:51 03:41:44 38° 295° (WNW) 03:46:35 435.225
BEESAT 20 Jan 04:00:09 04:04:26 33° 264° (W) 04:08:47 436.000
CUBESAT XI-V 20 Jan 04:02:16 04:06:56 66° 258° (WSW) 04:11:38 437.345
Oscar 19 20 Jan 04:02:40 04:06:20 20° 303° (WNW) 04:09:58 437.125/150
MOZHAYETS 4 20 Jan 04:04:34 04:07:57 20° 269° (W) 04:11:21
DOVE 4 20 Jan 04:04:53 04:05:51 11° 87° (E) 04:06:51 437.250
nSIGHT-1 20 Jan 04:05:00 04:07:17 18° 219° (SW) 04:09:33 .
KKS-1 20 Jan 04:05:34 04:09:18 28° 64° (ENE) 04:13:03 437.445
ISS 20 Jan 04:12:29 04:15:06 22° 217° (SW) 04:17:43 437.550
STARS 20 Jan 04:26:02 04:29:09 20° 60° (ENE) 04:32:17 437.465
AO-7 20 Jan 04:35:58 04:44:26 83° 109° (ESE) 04:52:48 .
M-CUBED/EXP-1 PRIME 20 Jan 04:57:59 05:00:20 17° 98° (E) 05:02:35 437.505
ITUPSAT 1 20 Jan 05:01:02 05:02:13 11° 275° (W) 05:03:25 437.325
ITAMSAT 1 20 Jan 05:04:47 05:09:59 69° 289° (WNW) 05:15:09 435.822/435.867
SO-50 20 Jan 05:29:58 05:32:57 18° 112° (ESE) 05:35:59 436.795
DOVE 4 20 Jan 05:39:51 05:44:09 88° 100° (E) 05:48:39 437.250
KKS-1 20 Jan 05:41:36 05:45:43 38° 262° (W) 05:49:52 437.445
LilacSat-2 20 Jan 05:47:25 05:50:05 18° 91° (E) 05:52:43 437.200
XW-2C 20 Jan 05:51:16 05:53:56 18° 91° (E) 05:56:35 145.795 - 145.815
FO-29 20 Jan 05:51:25 05:55:16 17° 53° (NE) 05:58:53 435.910
HO-68 20 Jan 05:59:20 06:03:07 15° 84° (E) 06:06:54 435.675
STARS 20 Jan 06:00:49 06:05:06 57° 258° (WSW) 06:09:26 437.465
XW-2F 20 Jan 06:28:14 06:31:49 41° 98° (E) 06:35:20 145.980 - 146.000
KAITUO 1B 20 Jan 06:28:48 06:32:10 32° 96° (E) 06:35:30 145.475/437.950
CUTE-I 20 Jan 06:28:57 06:33:54 38° 97° (E) 06:38:49 437.470
STRAND 1 20 Jan 06:29:12 06:34:03 46° 67° (ENE) 06:38:56 437.568
AO-7 20 Jan 06:29:25 06:36:26 31° 311° (NW) 06:43:25 .
M-CUBED/EXP-1 PRIME 20 Jan 06:31:44 06:34:56 36° 298° (WNW) 06:37:59 437.505
XW-2D 20 Jan 06:36:45 06:40:29 58° 100° (E) 06:44:11 145.860 - 145.880
NUDT-PHONESAT 20 Jan 06:41:58 06:45:30 42° 98° (E) 06:48:59 437.300
ITAMSAT 1 20 Jan 06:46:05 06:48:33 14° 309° (NW) 06:51:01 435.822/435.867
XW-2B 20 Jan 06:54:17 06:58:06 88° 114° (ESE) 07:01:50 145.730 - 145.750
SO-50 20 Jan 07:08:24 07:12:53 75° 313° (NW) 07:17:28 436.795
AAUSAT CUBESAT 2 20 Jan 07:08:40 07:09:26 10° 86° (E) 07:10:13 437.432
DOVE 4 20 Jan 07:19:18 07:21:18 13° 302° (WNW) 07:23:19 437.250
LilacSat-2 20 Jan 07:20:57 07:24:34 42° 290° (WNW) 07:28:09 437.200
SEEDS 20 Jan 07:20:59 07:24:44 31° 95° (E) 07:28:25 437.485
XW-2C 20 Jan 07:24:44 07:28:19 41° 290° (WNW) 07:31:51 145.795 - 145.815
CUBEBUG 2 20 Jan 07:30:32 07:35:06 44° 97° (E) 07:39:39 437.445
CUTE 1.7 + AOD 2 20 Jan 07:30:56 07:35:08 63° 100° (E) 07:39:17 437.475
FO-29 20 Jan 07:32:51 07:39:36 74° 72° (ENE) 07:45:35 435.910
UWE-3 20 Jan 07:38:36 07:42:48 32° 94° (E) 07:46:57 435.000/436.395/437.385
HO-68 20 Jan 07:45:00 07:52:10 71° 105° (ESE) 07:59:18 435.675
UNISAT 6 20 Jan 07:47:43 07:49:58 14° 55° (NE) 07:52:15 437.425
YUBILEINY 20 Jan 08:02:00 08:06:11 14° 44° (NE) 08:10:21 435.215
RS-15 20 Jan 08:02:04 08:12:58 40° 108° (ESE) 08:23:42 29.354- 29.394
XW-2F 20 Jan 08:02:55 08:05:38 19° 297° (WNW) 08:08:21 145.980 - 146.000
KAITUO 1B 20 Jan 08:03:02 08:06:01 23° 294° (WNW) 08:08:57 145.475/437.950
ZACube-1 20 Jan 08:05:00 08:09:05 31° 94° (E) 08:13:06 437.345
CUTE-I 20 Jan 08:09:05 08:13:57 37° 296° (WNW) 08:18:48 437.470
STRAND 1 20 Jan 08:09:05 08:13:26 28° 266° (W) 08:17:48 437.568
XW-2D 20 Jan 08:12:02 08:14:13 15° 299° (WNW) 08:16:24 145.860 - 145.880
AO-73 20 Jan 08:12:29 08:16:36 32° 94° (E) 08:20:38 145.935
NUDT-PHONESAT 20 Jan 08:16:28 08:19:03 18° 297° (WNW) 08:21:37 437.300
AO-7 20 Jan 08:24:06 08:26:34 12° 337° (NNW) 08:29:01 .
XW-2B 20 Jan 08:30:39 08:31:37 11° 302° (WNW) 08:32:36 145.730 - 145.750
AAUSAT CUBESAT 2 20 Jan 08:41:22 08:45:30 87° 284° (WNW) 08:49:35 437.432
Oscar 11 20 Jan 08:46:58 08:51:07 43° 98° (E) 08:55:14 .
SO-50 20 Jan 08:50:40 08:54:06 21° 334° (NNW) 08:57:34 436.795
XW-2A 20 Jan 08:53:32 08:56:54 66° 286° (WNW) 09:00:13 145.665 - 145.685
SEEDS 20 Jan 08:56:43 09:00:21 30° 294° (WNW) 09:03:59 437.485
TIGRISAT 20 Jan 09:06:36 09:10:57 59° 71° (ENE) 09:15:27 435.000
CUBEBUG 2 20 Jan 09:07:31 09:11:30 28° 296° (WNW) 09:15:30 437.445
CUTE 1.7 + AOD 2 20 Jan 09:07:48 09:10:31 17° 300° (WNW) 09:13:13 437.475
UWE-3 20 Jan 09:14:59 09:19:16 36° 293° (WNW) 09:23:30 435.000/436.395/437.385
FO-29 20 Jan 09:20:00 09:25:09 23° 269° (W) 09:29:53 435.910
UNISAT 6 20 Jan 09:21:30 09:25:57 88° 82° (E) 09:30:33 437.425
PCSat 20 Jan 09:22:47 09:25:29 14° 103° (ESE) 09:28:11 145.827
AIST 2D 20 Jan 09:27:24 09:28:04 10° 59° (ENE) 09:28:44 435.315
DELFI C3 20 Jan 09:28:46 09:31:58 23° 93° (E) 09:35:09 145.870
HO-68 20 Jan 09:33:21 09:39:24 31° 305° (NW) 09:45:27 435.675
O/OREOS (USA 219) 20 Jan 09:34:44 09:38:36 27° 50° (NE) 09:42:26 437.305
ZACube-1 20 Jan 09:41:12 09:45:23 35° 293° (WNW) 09:49:30 437.345
AO-73 20 Jan 09:48:42 09:52:49 34° 294° (WNW) 09:56:52 145.935
PRISM 20 Jan 09:53:31 09:57:25 47° 70° (ENE) 10:01:20 437.425
POLYITAN 1 20 Jan 10:00:04 10:01:24 11° 55° (NE) 10:02:44 437.675
